Location: Newark
(41.8922°N, 9.0050°E)
Time: 00:29:31
(UTC+00:00)

Envisat - Pass Details

Date: 29 January 2020
Orbit: 764 x 766 km, 98.1° (Epoch: 24 February)

Event Time Altitude Azimuth Distance (km) Brightness Sun altitude
Rises 18:18:20 0° 202° (SSW) 3,219 6.6 -19.4°
Reaches altitude 10° 18:21:10 10° 218° (SW) 2,298 6.1 -19.9°
Maximum altitude 18:24:58 21° 267° (W) 1,666 5.6 -20.6°
Drops below altitude 10° 18:28:47 10° 316° (NW) 2,310 6.0 -21.3°
Sets 18:31:39 0° 333° (NNW) 3,241 6.5 -21.9°
